| time (UTC) | temp F | wind direction | speed MPH | gust MPH | rain 1hr in | rain 24hr in | rain mn in | humidity % | barometer mb |
| 20260506181522 | 46 | 56 | 1.0 | 4.0 | 0.12 | 0.98 | 0.83 | 94 | 1006.7 |
| 20260506180021 | 46 | 50 | 1.0 | 4.0 | 0.14 | 0.97 | 0.82 | 94 | 1007.2 |
| 20260506174518 | 46 | 346 | 2.0 | 8.0 | 0.13 | 0.94 | 0.79 | 94 | 1007.2 |
| 20260506171515 | 46 | 310 | 2.0 | 5.0 | 0.13 | 0.86 | 0.71 | 94 | 1007.3 |
| 20260506170007 | 47 | 296 | 0.0 | 4.0 | 0.15 | 0.83 | 0.68 | 95 | 1007.2 |
| 20260506163038 | 46 | 13 | 1.0 | 4.0 | 0.15 | 0.77 | 0.62 | 94 | 1007.2 |
| 20260506161518 | 46 | 57 | 1.0 | 4.0 | 0.13 | 0.73 | 0.58 | 94 | 1007.4 |
| 20260506154528 | 47 | 11 | 0.0 | 3.0 | 0.10 | 0.66 | 0.51 | 94 | 1007.4 |
| 20260506153009 | 47 | 33 | 2.0 | 5.0 | 0.08 | 0.62 | 0.47 | 94 | 1007.4 |
| 20260506151506 | 47 | 34 | 2.0 | 4.0 | 0.07 | 0.60 | 0.45 | 94 | 1007.6 |
| 20260506150007 | 47 | 25 | 1.0 | 5.0 | 0.06 | 0.58 | 0.43 | 94 | 1007.7 |
| 20260506144505 | 48 | 309 | 0.0 | 4.0 | 0.06 | 0.56 | 0.41 | 95 | 1007.9 |
| 20260506143004 | 48 | 33 | 0.0 | 4.0 | 0.06 | 0.54 | 0.39 | 95 | 1007.9 |
| 20260506141516 | 48 | 352 | 0.0 | 3.0 | 0.07 | 0.52 | 0.38 | 94 | 1007.8 |
| 20260506134511 | 48 | 40 | 0.0 | 2.0 | 0.10 | 0.50 | 0.35 | 94 | 1007.8 |
| 20260506133006 | 48 | 317 | 1.0 | 2.0 | 0.11 | 0.48 | 0.33 | 94 | 1008.2 |
| 20260506130004 | 48 | 148 | 0.0 | 3.0 | 0.09 | 0.44 | 0.29 | 95 | 1008.5 |
| 20260506124518 | 49 | 5 | 0.0 | 2.0 | 0.05 | 0.40 | 0.25 | 95 | 1008.6 |
| 20260506123017 | 49 | 40 | 1.0 | 3.0 | 0.02 | 0.37 | 0.22 | 95 | 1008.6 |
| 20260506121514 | 49 | 41 | 0.0 | 2.0 | 0.01 | 0.36 | 0.21 | 95 | 1008.5 |
| 20260506120012 | 49 | 241 | 1.0 | 4.0 | 0.01 | 0.35 | 0.20 | 95 | 1009.3 |
| 20260506114510 | 49 | 5 | 0.0 | 2.0 | 0.01 | 0.35 | 0.20 | 95 | 1008.5 |
| 20260506113006 | 49 | 352 | 0.0 | 2.0 | 0.02 | 0.35 | 0.20 | 95 | 1008.5 |
| 20260506111529 | 49 | 352 | 0.0 | 2.0 | 0.02 | 0.35 | 0.20 | 95 | 1008.5 |
| 20260506110020 | 49 | 326 | 0.0 | 2.0 | 0.02 | 0.34 | 0.19 | 95 | 1008.4 |
| 20260506104518 | 49 | 346 | 0.0 | 2.0 | 0.02 | 0.34 | 0.19 | 95 | 1008.5 |
| 20260506103016 | 50 | 352 | 1.0 | 2.0 | 0.01 | 0.33 | 0.18 | 95 | 1008.4 |
| 20260506101512 | 50 | 352 | 0.0 | 2.0 | 0.01 | 0.33 | 0.18 | 95 | 1008.8 |
| 20260506100006 | 50 | 322 | 1.0 | 2.0 | 0.00 | 0.32 | 0.17 | 95 | 1008.8 |
| 20260506094525 | 51 | 30 | 1.0 | 2.0 | 0.00 | 0.32 | 0.17 | 95 | 1008.9 |
| 20260506093022 | 51 | 71 | 0.0 | 3.0 | 0.00 | 0.32 | 0.17 | 95 | 1008.3 |
| 20260506091521 | 51 | 323 | 0.0 | 3.0 | 0.01 | 0.32 | 0.17 | 95 | 1008.7 |
| 20260506084514 | 52 | 311 | 1.0 | 2.0 | 0.02 | 0.32 | 0.17 | 96 | 1009.0 |
| 20260506083031 | 52 | 85 | 0.0 | 2.0 | 0.02 | 0.32 | 0.17 | 96 | 1008.9 |
| 20260506081525 | 52 | 85 | 0.0 | 4.0 | 0.02 | 0.31 | 0.16 | 96 | 1009.1 |
| 20260506073021 | 52 | 198 | 0.0 | 2.0 | 0.05 | 0.30 | 0.15 | 96 | 1008.4 |
| 20260506071520 | 52 | 203 | 0.0 | 2.0 | 0.04 | 0.29 | 0.14 | 96 | 1008.3 |
| 20260506061507 | 53 | 136 | 0.0 | 2.0 | 0.02 | 0.25 | 0.10 | 95 | 1008.6 |
| 20260506044515 | 53 | 285 | 0.0 | 2.0 | 0.11 | 0.23 | 0.08 | 95 | 1008.9 |
| 20260506043007 | 53 | 269 | 0.0 | 2.0 | 0.11 | 0.21 | 0.06 | 94 | 1008.2 |
| 20260506041502 | 54 | 42 | 0.0 | 3.0 | 0.15 | 0.21 | 0.06 | 93 | 1008.8 |
| 20260506040003 | 55 | 240 | 1.0 | 4.0 | 0.09 | 0.15 | 0.00 | 94 | 1009.3 |
| 20260506033017 | 56 | 136 | 2.0 | 5.0 | 0.05 | 0.10 | 0.10 | 95 | 1008.0 |
| 20260506031512 | 56 | 336 | 0.0 | 2.0 | 0.01 | 0.06 | 0.06 | 95 | 1007.2 |
| 20260506030012 | 55 | 336 | 0.0 | 2.0 | 0.01 | 0.06 | 0.06 | 95 | 1007.2 |
| 20260506024505 | 55 | 336 | 0.0 | 0.0 | 0.01 | 0.06 | 0.06 | 95 | 1007.0 |
| 20260506021504 | 56 | 336 | 1.0 | 2.0 | 0.00 | 0.05 | 0.05 | 95 | 1007.2 |
| 20260506020017 | 56 | 336 | 0.0 | 2.0 | 0.00 | 0.05 | 0.05 | 95 | 1007.1 |
| 20260506013030 | 56 | 336 | 0.0 | 2.0 | 0.00 | 0.05 | 0.05 | 95 | 1006.4 |
| 20260506011521 | 56 | 336 | 0.0 | 2.0 | 0.00 | 0.05 | 0.05 | 94 | 1006.4 |
| 20260506010009 | 56 | 336 | 0.0 | 0.0 | 0.00 | 0.05 | 0.05 | 94 | 1006.3 |
| 20260506004505 | 57 | 336 | 0.0 | 2.0 | 0.00 | 0.05 | 0.05 | 94 | 1006.3 |
| 20260506003023 | 57 | 336 | 1.0 | 2.0 | 0.00 | 0.05 | 0.05 | 94 | 1006.2 |
| 20260506001521 | 57 | 336 | 0.0 | 2.0 | 0.00 | 0.05 | 0.05 | 94 | 1006.0 |
| 20260506000018 | 58 | 336 | 0.0 | 2.0 | 0.00 | 0.05 | 0.05 | 94 | 1006.1 |
| 20260505234516 | 58 | 336 | 0.0 | 2.0 | 0.00 | 0.05 | 0.05 | 94 | 1006.2 |
| 20260505233021 | 58 | 336 | 0.0 | 2.0 | 0.00 | 0.05 | 0.05 | 94 | 1005.5 |
| 20260505231507 | 59 | 336 | 0.0 | 2.0 | 0.00 | 0.05 | 0.05 | 94 | 1005.5 |
| 20260505230028 | 59 | 336 | 0.0 | 2.0 | 0.00 | 0.05 | 0.05 | 93 | 1005.3 |
| 20260505224520 | 59 | 257 | 1.0 | 3.0 | 0.00 | 0.05 | 0.05 | 93 | 1005.2 |
| 20260505223021 | 59 | 289 | 1.0 | 2.0 | 0.00 | 0.05 | 0.05 | 93 | 1005.0 |
| 20260505221518 | 60 | 263 | 0.0 | 2.0 | 0.00 | 0.05 | 0.05 | 93 | 1005.4 |
| 20260505220029 | 60 | 261 | 0.0 | 2.0 | 0.00 | 0.05 | 0.05 | 93 | 1005.5 |
| 20260505213027 | 61 | 326 | 0.0 | 3.0 | 0.02 | 0.05 | 0.05 | 93 | 1005.0 |
| 20260505211507 | 61 | 27 | 2.0 | 3.0 | 0.02 | 0.05 | 0.05 | 92 | 1004.9 |
| 20260505210004 | 61 | 291 | 1.0 | 2.0 | 0.02 | 0.05 | 0.05 | 91 | 1004.9 |
| 20260505204505 | 62 | 291 | 0.0 | 2.0 | 0.05 | 0.05 | 0.05 | 89 | 1004.8 |
| 20260505203020 | 63 | 215 | 0.0 | 2.0 | 0.03 | 0.03 | 0.03 | 87 | 1003.9 |
| 20260505201517 | 64 | 249 | 1.0 | 2.0 | 0.03 | 0.03 | 0.03 | 1004.0 | |
| 20260505200016 | 66 | 247 | 1.0 | 22.0 | 0.03 | 0.03 | 0.03 | 69 | 1004.0 |
| 20260505194514 | 73 | 92 | 2.0 | 9.0 | 0.00 | 0.00 | 0.00 | 50 | 1003.1 |
| 20260505193009 | 75 | 169 | 6.0 | 26.0 | 0.00 | 0.00 | 0.00 | 43 | 1001.5 |
| 20260505191521 | 79 | 171 | 8.0 | 13.0 | 0.00 | 0.00 | 0.00 | 36 | 1001.1 |
| 20260505190021 | 79 | 123 | 4.0 | 18.0 | 0.00 | 0.00 | 0.00 | 38 | 1000.9 |
| 20260505184520 | 79 | 115 | 3.0 | 19.0 | 0.00 | 0.00 | 0.00 | 37 | 1001.1 |
| 20260505183020 | 78 | 167 | 6.0 | 17.0 | 0.00 | 0.00 | 0.00 | 37 | 1001.4 |